• în România
  • Lista ţărilor
  • Pe 7 zile
  • Temperatura apei
  • Hartă satelitară
  • Meteo pe hartă
  • Widget-uri
  • user-avatar
    Intrare

    Meteo pe oră la Port Gentil

    Astăzi, 17 Octombrie, Miercuri

    Timp Temperatura Precipitaţii Vânt Presiune Umiditate
    00:00 +27°C° 0.5 mm 4 m/s 760 mmHg 92%
    01:00 +27°C° 0.5 mm 4 m/s 759 mmHg 92%
    02:00 +27°C° 0.3 mm 4 m/s 759 mmHg 92%
    03:00 +26°C° 0.3 mm 4 m/s 759 mmHg 92%
    04:00 +26°C° 0.3 mm 4 m/s 758 mmHg 92%
    05:00 +27°C° 0.1 mm 3 m/s 759 mmHg 91%
    06:00 +27°C° 0.1 mm 3 m/s 759 mmHg 90%
    07:00 +27°C° 0.1 mm 3 m/s 759 mmHg 89%
    08:00 +28°C° 0.1 mm 3 m/s 759 mmHg 85%
    09:00 +29°C° 0.1 mm 3 m/s 760 mmHg 81%
    10:00 +30°C° 0.1 mm 3 m/s 760 mmHg 76%
    11:00 +30°C° 0.4 mm 3 m/s 759 mmHg 76%
    12:00 +30°C° 0.4 mm 3 m/s 759 mmHg 77%
    13:00 +30°C° 0.4 mm 4 m/s 758 mmHg 77%
    14:00 +30°C° 0.7 mm 4 m/s 758 mmHg 78%
    15:00 +30°C° 0.7 mm 5 m/s 757 mmHg 80%
    16:00 +29°C° 0.7 mm 5 m/s 757 mmHg 81%
    17:00 +29°C° 0.2 mm 5 m/s 757 mmHg 84%
    18:00 +28°C° 0.2 mm 4 m/s 758 mmHg 86%
    19:00 +27°C° 0.2 mm 4 m/s 758 mmHg 89%
    20:00 +27°C° 0.1 mm 4 m/s 758 mmHg 89%
    21:00 +27°C° 0.1 mm 4 m/s 759 mmHg 89%
    22:00 +27°C° 0.1 mm 4 m/s 759 mmHg 90%
    23:00 +27°C° 0.2 mm 4 m/s 759 mmHg 90%

    Mâine, 18 Octombrie, Joi

    Timp Temperatura Precipitaţii Vânt Presiune Umiditate
    00:00 +27°C° 0.2 mm 4 m/s 759 mmHg 91%
    01:00 +27°C° 0.2 mm 3 m/s 759 mmHg 91%
    02:00 +27°C° 0.6 mm 3 m/s 758 mmHg 91%
    03:00 +27°C° 0.6 mm 4 m/s 758 mmHg 92%
    04:00 +26°C° 0.6 mm 4 m/s 757 mmHg 92%
    05:00 +27°C° 0.5 mm 3 m/s 758 mmHg 92%
    06:00 +27°C° 0.5 mm 3 m/s 758 mmHg 92%
    07:00 +27°C° 0.5 mm 3 m/s 758 mmHg 91%
    08:00 +28°C° 0.3 mm 3 m/s 759 mmHg 88%
    09:00 +28°C° 0.3 mm 3 m/s 759 mmHg 84%
    10:00 +29°C° 0.3 mm 3 m/s 759 mmHg 81%
    11:00 +29°C° 0.8 mm 3 m/s 759 mmHg 81%
    12:00 +29°C° 0.8 mm 2 m/s 758 mmHg 82%
    13:00 +29°C° 0.8 mm 2 m/s 758 mmHg 82%
    14:00 +29°C° 0.2 mm 2 m/s 757 mmHg 84%
    15:00 +28°C° 0.2 mm 3 m/s 756 mmHg 85%
    16:00 +28°C° 0.2 mm 3 m/s 756 mmHg 87%
    17:00 +28°C° 0.1 mm 3 m/s 756 mmHg 88%
    18:00 +27°C° 0.1 mm 4 m/s 756 mmHg 89%
    19:00 +27°C° 0.1 mm 4 m/s 757 mmHg 91%
    20:00 +27°C° 0 mm 4 m/s 757 mmHg 91%
    21:00 +27°C° 0 mm 3 m/s 758 mmHg 90%
    22:00 +27°C° 0 mm 3 m/s 758 mmHg 90%
    23:00 +27°C° 0 mm 2 m/s 758 mmHg 90%

    Poimâine, 19 Octombrie, Vineri

    Timp Temperatura Precipitaţii Vânt Presiune Umiditate
    00:00 +26°C° 0 mm 2 m/s 758 mmHg 91%
    01:00 +26°C° 0 mm 2 m/s 757 mmHg 91%
    02:00 +26°C° 0 mm 2 m/s 757 mmHg 91%
    03:00 +27°C° 0 mm 2 m/s 757 mmHg 90%
    04:00 +27°C° 0 mm 2 m/s 756 mmHg 90%
    05:00 +27°C° 0.1 mm 2 m/s 757 mmHg 89%
    06:00 +27°C° 0.1 mm 2 m/s 757 mmHg 89%
    07:00 +27°C° 0.1 mm 2 m/s 758 mmHg 88%
    08:00 +28°C° 0 mm 2 m/s 758 mmHg 85%
    09:00 +29°C° 0 mm 2 m/s 759 mmHg 81%
    10:00 +29°C° 0 mm 3 m/s 759 mmHg 78%
    11:00 +30°C° 0.1 mm 2 m/s 759 mmHg 76%
    12:00 +30°C° 0.1 mm 2 m/s 758 mmHg 75%
    13:00 +30°C° 0.1 mm 2 m/s 757 mmHg 73%
    14:00 +30°C° 0 mm 3 m/s 757 mmHg 72%
    15:00 +31°C° 0 mm 3 m/s 756 mmHg 71%
    16:00 +32°C° 0 mm 4 m/s 756 mmHg 70%
    17:00 +30°C° 0 mm 4 m/s 756 mmHg 75%
    18:00 +29°C° 0 mm 3 m/s 756 mmHg 80%
    19:00 +28°C° 0 mm 3 m/s 757 mmHg 85%
    20:00 +27°C° 0 mm 3 m/s 757 mmHg 86%
    21:00 +27°C° 0 mm 3 m/s 757 mmHg 87%
    22:00 +27°C° 0 mm 2 m/s 758 mmHg 88%
    23:00 +27°C° 0 mm 2 m/s 757 mmHg 89%

    20 Octombrie, Sâmbătă

    Timp Temperatura Precipitaţii Vânt Presiune Umiditate
    00:00 +27°C° 0 mm 2 m/s 757 mmHg 89%
    01:00 +27°C° 0 mm 3 m/s 757 mmHg 90%
    02:00 +27°C° 0 mm 2 m/s 757 mmHg 90%
    03:00 +26°C° 0 mm 2 m/s 756 mmHg 91%
    04:00 +26°C° 0 mm 2 m/s 756 mmHg 91%
    05:00 +27°C° 0.1 mm 2 m/s 757 mmHg 90%
    06:00 +27°C° 0.1 mm 3 m/s 757 mmHg 89%
    07:00 +27°C° 0.1 mm 3 m/s 758 mmHg 88%
    08:00 +29°C° 0.1 mm 3 m/s 758 mmHg 82%
    09:00 +30°C° 0.1 mm 3 m/s 758 mmHg 76%
    10:00 +31°C° 0.1 mm 3 m/s 759 mmHg 69%
    11:00 +32°C° 0.5 mm 4 m/s 758 mmHg 70%
    12:00 +33°C° 0.5 mm 4 m/s 757 mmHg 72%
    13:00 +33°C° 0.5 mm 4 m/s 757 mmHg 73%
    14:00 +32°C° 0.6 mm 4 m/s 756 mmHg 74%
    15:00 +32°C° 0.6 mm 5 m/s 756 mmHg 76%
    16:00 +30°C° 0.6 mm 5 m/s 756 mmHg 78%
    17:00 +29°C° 0 mm 5 m/s 756 mmHg 81%
    18:00 +28°C° 0 mm 5 m/s 757 mmHg 85%
    19:00 +28°C° 0 mm 4 m/s 757 mmHg 88%
    20:00 +27°C° 0 mm 4 m/s 758 mmHg 89%
    21:00 +27°C° 0 mm 4 m/s 758 mmHg 89%
    22:00 +27°C° 0 mm 4 m/s 758 mmHg 90%
    23:00 +27°C° 0.5 mm 4 m/s 758 mmHg 90%

    21 Octombrie, Duminică

    Timp Temperatura Precipitaţii Vânt Presiune Umiditate
    00:00 +27°C° 0.5 mm 4 m/s 757 mmHg 90%
    01:00 +27°C° 0.5 mm 4 m/s 757 mmHg 91%
    02:00 +27°C° 0.1 mm 4 m/s 757 mmHg 91%
    03:00 +27°C° 0.1 mm 4 m/s 757 mmHg 91%
    04:00 +27°C° 0.1 mm 4 m/s 756 mmHg 91%
    05:00 +27°C° 0 mm 4 m/s 757 mmHg 90%
    06:00 +27°C° 0 mm 4 m/s 757 mmHg 89%
    07:00 +27°C° 0 mm 4 m/s 758 mmHg 89%
    08:00 +28°C° 0.1 mm 4 m/s 758 mmHg 84%
    09:00 +29°C° 0.1 mm 4 m/s 758 mmHg 79%
    10:00 +32°C° 0.1 mm 5 m/s 758 mmHg 75%
    11:00 +32°C° 0.3 mm 4 m/s 758 mmHg 73%
    12:00 +33°C° 0.3 mm 4 m/s 757 mmHg 71%
    13:00 +33°C° 0.3 mm 4 m/s 756 mmHg 69%
    14:00 +33°C° 0.1 mm 4 m/s 755 mmHg 70%
    15:00 +33°C° 0.1 mm 4 m/s 755 mmHg 72%
    16:00 +32°C° 0.1 mm 4 m/s 754 mmHg 73%
    17:00 +30°C° 0 mm 4 m/s 755 mmHg 77%
    18:00 +29°C° 0 mm 4 m/s 755 mmHg 82%
    19:00 +28°C° 0 mm 4 m/s 756 mmHg 86%
    20:00 +28°C° 0 mm 4 m/s 756 mmHg 86%
    21:00 +28°C° 0 mm 3 m/s 757 mmHg 87%
    22:00 +28°C° 0 mm 3 m/s 757 mmHg 87%
    23:00 +27°C° 0.1 mm 3 m/s 757 mmHg 88%

    22 Octombrie, Luni

    Timp Temperatura Precipitaţii Vânt Presiune Umiditate
    00:00 +27°C° 0.1 mm 3 m/s 756 mmHg 89%
    01:00 +27°C° 0.1 mm 3 m/s 756 mmHg 89%
    02:00 +27°C° 0.3 mm 4 m/s 756 mmHg 90%
    03:00 +27°C° 0.3 mm 4 m/s 755 mmHg 90%
    04:00 +27°C° 0.3 mm 4 m/s 755 mmHg 91%
    05:00 +27°C° 0 mm 4 m/s 756 mmHg 90%
    06:00 +27°C° 0 mm 4 m/s 756 mmHg 90%
    07:00 +27°C° 0 mm 4 m/s 757 mmHg 89%
    08:00 +28°C° 0 mm 4 m/s 757 mmHg 85%
    09:00 +29°C° 0 mm 4 m/s 757 mmHg 81%
    10:00 +30°C° 0 mm 3 m/s 757 mmHg 78%
    11:00 +30°C° 0 mm 3 m/s 756 mmHg 77%
    12:00 +30°C° 0 mm 4 m/s 755 mmHg 77%
    13:00 +30°C° 0 mm 4 m/s 755 mmHg 76%
    14:00 +30°C° 0.1 mm 4 m/s 754 mmHg 76%
    15:00 +30°C° 0.1 mm 5 m/s 754 mmHg 77%
    16:00 +30°C° 0.1 mm 5 m/s 754 mmHg 77%
    17:00 +29°C° 0.1 mm 5 m/s 754 mmHg 80%
    18:00 +29°C° 0.1 mm 5 m/s 755 mmHg 83%
    19:00 +28°C° 0.1 mm 5 m/s 755 mmHg 86%
    20:00 +28°C° 0 mm 5 m/s 756 mmHg 87%
    21:00 +28°C° 0 mm 5 m/s 756 mmHg 87%
    22:00 +27°C° 0 mm 4 m/s 757 mmHg 88%
    23:00 +27°C° 0.6 mm 4 m/s 757 mmHg 88%
    Arată mai mult